www.pogodaiklimat.ru

Погода и климат >> Архив погоды >> Россия >> Ростовская область >> Аэропорт Платов


ПОГОДА в Аэропорту Платов

  • Прогноз погоды в Аэропорту Платов
  • Монитор погоды в Аэропорту Платов

АРХИВ ПОГОДЫ в Аэропорту Платов

Время (UTC), дата Ветер
(напр.,м/с)
 
Видим.   Явления Облачность Т
(С)
Тd
(С)
f
(%)
Тe
(С)
Тes
(С)
Комфортность P
(гПа)
Po
(гПа)
Тmin
(С)
Tmax
(С)
R
(мм)
R24
(мм)
S
(см)
00 12.09 СВ 5 10 км 3/0
[Ac trans Ci fib]
+16.6 +6.7 52 +16 +16 1026.5 1015.0
03 12.09 СВ 4 10 км 4/0
[Ac trans Ci fib]
+16.7 +6.2 50 +16 +16 1027.1 1015.6 +16.1
06 12.09 В 7 10 км 3/0
[Ac trans]
+21.5 +6.7 38 +22 +23 комфорт 1027.6 1016.3 +15.8
09 12.09 В 6
{12}
10 км ясно +25.8 +4.4 25 +25 +29 комфорт 1026.3 1015.2
12 12.09 СВ 5
{12}
10 км ясно +27.1 +1.2 19 +25 +29 комфорт 1025.0 1013.9
15 12.09 В 4
{11}
10 км ясно +25.1 +1.7 22 +24 +24 комфорт 1024.4 1013.3 +27.5
18 12.09 СВ 3
{11}
9000 м ясно +19.5 +1.8 31 +20 +20 1025.1 1013.7
21 12.09 СЗ 2 10 км ясно +14.1 +0.7 40 +14 +14 1024.7 1013.1
00 13.09 СЗ 2 10 км 3/0
[Ac trans]
+12.5 +1.2 46 +12 +12 1024.4 1012.8
03 13.09 З 1 10 км ясно +10.8 +1.6 53 +11 +11 1024.6 1012.9 +10.7
06 13.09 В 1 10 км ясно +20.7 +5.8 38 +23 +28 комфорт 1025.1 1013.8 +10.6
09 13.09 ЮВ 5 10 км 4/1 1000 м
[Cu hum Ac trans]
+26.6 +5.2 25 +26 +30 жарко 1023.7 1012.6
12 13.09 СВ 2 10 км 3/0
[Ac trans]
+26.9 +3.9 23 +26 +31 жарко 1022.3 1011.3
15 13.09 ЮВ 3 10 км 3/0
[Ac trans Ci fib]
+25.5 +2.7 23 +24 +24 комфорт 1021.8 1010.7 +27.8
18 13.09 В 2 10 км 3/0
[Ac trans Ci fib]
+19.0 +3.0 34 +20 +20 1022.4 1011.1
21 13.09 ЮВ 1 10 км 3/0
[Ci fib]
+16.8 +2.6 39 +18 +18 1022.3 1010.9
00 14.09 штиль 0 10 км ясно +12.1 +3.2 54 +12 +12 1022.2 1010.6
03 14.09 штиль 0 10 км ясно +10.3 +3.9 64 +10 +10 1021.9 1010.2 +9.0
06 14.09 ЮВ 2 10 км ясно +19.9 +7.4 44 +21 +26 комфорт 1021.8 1010.5
09 14.09 ЮВ 5 10 км 3/3 1500 м
[Cu hum]
+26.3 +4.6 25 +25 +29 комфорт 1019.8 1008.8
12 14.09 ЮЗ 4 10 км 4/3 1500 м
[Cu med, cong Ac trans]
+26.9 +3.7 22 +26 +28 жарко 1018.3 1007.3
15 14.09 Ю 3 10 км 3/0
[Ac trans]
+25.4 +4.0 25 +25 +25 комфорт 1017.2 1006.2 +27.6
18 14.09 ЮВ 3 10 км 5/0
[Ac trans Ci fib]
+20.4 +3.5 33 +21 +21 комфорт 1017.3 1006.1
21 14.09 СЗ 5 10 км 5/0
[Ac trans Ci fib]
+15.7 +3.4 44 +15 +15 1017.8 1006.4
00 15.09 С 4 10 км 6/0
[Ac trans Ci fib]
+16.8 +9.4 62 +16 +16 1017.2 1005.8
03 15.09 С 7-10
{10}
10 км 8/0
[Ac trans Ci fib]
+16.9 +7.8 55 +16 +16 1018.3 1006.9 +14.3
06 15.09 С 7-11
{12}
10 км 5/0
[Ac trans Ci fib]
+18.0 +8.1 52 +17 +18 1020.1 1008.8
09 15.09 С 6-10
{11}
10 км 3/0
[Ac trans Ci fib]
+20.9 +2.6 30 +21 +25 комфорт 1020.4 1009.2
12 15.09 С 4
{11}
10 км 3/0
[Ci fib]
+22.3 -1.7 20 +21 +25 комфорт 1019.8 1008.6
15 15.09 СЗ 3 10 км 3/0
[Ci fib]
+21.0 0.0 25 +21 +22 комфорт 1019.7 1008.5 +23.2
18 15.09 штиль 0 10 км 4/0
[Ci fib]
+14.8 -0.9 34 +15 +15 1020.8 1009.3
21 15.09 СЗ 2 10 км 4/0
[Ci fib]
+10.5 -2.3 41 +10 +10 1020.8 1009.1
00 16.09 СЗ 1 10 км ясно +8.5 -0.8 52 +8 +8 1019.7 1008.0
03 16.09 В 1 10 км 1/0
[Ci fib]
+6.6 -1.2 57 +6 +6 1019.4 1007.6 +5.7
06 16.09 ЮЗ 1 10 км ясно +16.8 +4.8 45 +18 +23 1017.8 1006.4
09 16.09 ЮЗ 6
{10}
10 км ясно +23.0 +2.2 25 +22 +26 комфорт 1015.1 1004.0
12 16.09 З 8-10
{11}
10 км ясно +24.5 -0.3 19 +23 +24 комфорт 1012.8 1001.8
15 16.09 З 7
{12}
9000 м ясно +21.7 +0.8 25 +21 +21 комфорт 1011.5 1000.4 +24.9
18 16.09 З 3
{12}
10 км ясно +16.8 +7.5 54 +17 +17 1011.6 1000.3
21 16.09 З 2 10 км ясно +15.5 +10.8 74 +15 +15 1011.1 999.8
00 17.09 З 3 10 км ясно +16.2 +13.1 82 +16 +16 1010.1 998.8
03 17.09 З 4 10 км ясно +15.0 +13.0 88 +14 +14 1009.6 998.3 +14.6
06 17.09 З 8-11
{11}
10 км 3/0
[Ac trans]
+21.4 +14.4 64 +24 +25 комфорт 1008.8 997.7
09 17.09 З 10-13
{15}
10 км 5/3 1000 м
[Cu med, cong Ac trans Ci fib]
+24.9 +14.3 52 +27 +28 жарко 1008.0 997.1
12 17.09 З 10-13
{15}
10 км 6/3 1000 м
[Cb calv Ac trans Ci]
+24.9 +13.9 50 +27 +27 жарко 1006.9 996.0
15 17.09 С 4
{12}
10 км гроза, ливневой дождь 9/5 1440 м
[Cb cap Ac trans Ci]
+16.1 +14.2 88 +15 +15 1008.6 997.3 +26.3
18 17.09 ЮЗ 2
{12}
10 км в посл. час ливневой дождь {гроза} 9/5 1140 м
[Cb calv Ac trans]
+15.6 +14.7 94 +15 +15 1009.3 998.0

 

Местоположение метеостанции Аэропорт Платов (Ростовская область, Россия): широта 47.49 долгота 39.92 высота над уровнем моря 84 м.

В архиве по умолчанию представлена погода в Аэропорту Платов за последнюю неделю. Архивные данные за месяц целиком и за предыдущие месяцы, начиная с января 2011 года, Вы можете получить, выбрав интересующий диапазон дат из раскрывающегося списка и нажав кнопку "Ввод!".


*Определитесь, кто Вы:
робот инопланетянин человек

Внимание! Время в таблицах - всемирное. Для получения местного времени необходимо прибавить поправку, которая равна 3 ч.

Смотрите также архив погоды в соседних городах и на ближайших метеорологических станциях:

Погода в Ростове-на-Дону (Ростовская область, Россия) (26 км)
Погода в Шахтах (Ростовская область, Россия) (35 км)
Погода в Семикаракорске (Ростовская область, Россия) (68 км)
Погода в Зерноград (Ростовская область, Россия) (77 км)
Погода в Матвеевом Кургане (Ростовская область, Россия) (79 км)
Погода в Таганроге (Ростовская область, Россия) (83 км)
Погода в Константиновске (Ростовская область, Россия) (89 км)
Погода в Каменск-Шахтинском (Ростовская область, Россия) (94 км)
Погода в Маргаритово (Ростовская область, Россия) (101 км)
Погода в Белой Калитве (Ростовская область, Россия) (106 км)

Пояснения к столбцам:

Ветер - указаны скорость ветра в м/с - средняя за 10 мин, порывы в срок и между сроками (в фигурных скобках) и направление, откуда дует ветер: С - северный, СВ - северо-восточный, В - восточный, ЮВ - юго-восточный, Ю - южный, ЮЗ - юго-западный, З - западный, СЗ - северо-западный.
Видимость - горизонтальная дальность видимости в метрах или километрах. При видимости от 1 до 10 км при отсутствии осадков обычно наблюдается дымка, при ухудшении видимости до 1 км и менее - туман. В сухую погоду видимость может ухудшаться дымом, пылью или мглою.
Явления - указаны атмосферные явления, наблюдавшиеся в срок или в последний час перед сроком; фигурными скобками обозначены явления, наблюдавшиеся между сроками (за 1-3 часа до срока); квадратными скобками обозначены град или гололедные отложения с указанием их диаметра в мм.
Облачность - указаны через наклонную черту общая и нижняя облачность в баллах и высота нижней границы облаков в метрах; квадратными скобками обозначены формы облаков: Ci - перистые, Cs - перисто-слоистые, Cc - перисто-кучевые, Ac - высококучевые, As - высокослоистые, Sc - слоисто-кучевые, Ns - слоисто-дождевые, Cu - кучевые, Cb - кучево-дождевые. Подробнее классификацию облаков см. в Атласе облаков (PDF).
T - Температура воздуха - температура, измеренная на высоте 2 м над землей.
Td - Температура точки росы - температура, при понижении до которой содержащийся в воздухе водяной пар достигнет насыщения.
f - Относительная влажность воздуха - влажноcть воздуха, измеренная на высоте 2 м над землей.
Te - Эффективная температура - температура, которую ощущает одетый по сезону человек в тени. Характеристика душности погоды. При расчете учитывается влияние влажности воздуха и скорости ветра на теплоощущения человека.
Tes - Эффективная температура на солнце - температура, которую ощущает человек, с поправкой на солнечный нагрев. Характеристика знойности погоды. Зависит от высоты солнца над горизонтом, облачности и скорости ветра. Ночью, в пасмурную погоду, а также при ветре 12 м/с и более поправка равна нулю.
P - Атмосферное давление - приведенное к уровню моря атмосферное давление.
Po - Атмосферное давление - измеренное на уровне метеостанции атмосферное давление.
Tmin - Минимальная температура - минимум температуры воздуха на высоте 2 м над землей.
Tmax - Максимальная температура - максимум температуры воздуха на высоте 2 м над землей.
R - Количество осадков - Количество выпавших осадков за период времени, мм. При наведении курсора мыши на число - период времени, за который выпало указанное количество осадков.
R24 - Количество осадков - Количество выпавших осадков за 24 часа, мм.
S - Снежный покров - Высота снежного покрова, см. При наведении курсора мыши на число - состояние снежного покрова и степень покрытия местности в баллах.